Volver al catálogo

SL-16 DEB

ActivoLEO
NORAD 39722·DEBRIS·🇷🇺 Russia

Lanzado Dec 25, 1992 desde Baikonur Cosmodrome

Loading…

Próximos Pases (próximas 24 horas)

TLE

ActualizadoSource: Space-Track

Época: Sep 14, 2026, 13:34 UTC

1 39722U 92093KN  26257.56553631  .00000254  00000-0  18734-3 0  9999
2 39722  70.8937 191.6301 0102041 134.9754  38.5798 14.02169815634179

Sigue SL-16 DEB en tiempo real con AllMySat

Download on the App Store